Dewpoint
-4 -1 -1 -1 -2 -4 -5 -5 -5 -6 -4 -4 -3 -2 -4 -5 -4 -5 -5 -5 -5 -5 -4 -3 -3 -3 -4 -5 -8 -12 -15 -10 -10 -9 -6 -3 4 5 6 7 7 8 8 9
-2 -1 -2 -3 -4 -3 -3 -3 -4 -6 -3 -3 -2 -1 -3 -5 -5 -5 -5 -5 -5 -6 -5 -3 -3 -4 -4 -6 -6 -12 -9 -4 -2 -2 -4 -3 5 6 6 6 7 6 9 9
-0 -1 -3 -3 -3 -3 -2 -2 -2 -1 -1 -1 -2 -7 -6 -6 -6 -5 -5 -5 -6 -6 -6 -4 -4 -4 -5 -5 -6 -13 -4 -2 -1 -1 -1 -2 3 5 6 6 7 6 8 9
-2 -3 -2 -3 -1 -2 -2 -2 -2 -0 0 -7 -5 -12 -6 -6 -5 -5 -5 -5 -6 -6 -5 -5 -4 -4 -5 -5 -7 -14 -6 -3 -1 -1 -0 -1 1 4 4 5 7 5 8 9
-0 -3 -3 -3 -1 -2 0 -2 -1 -1 0 -1 -2 -4 -6 -6 -7 -5 -5 -6 -6 -6 -5 -5 -5 -5 -5 -7 -6 -14 -10 -6 -3 -1 -0 -0 -0 2 4 5 6 7 7 8
-1 -2 -2 -1 -3 -2 -2 -1 -0 -2 -1 -4 -0 -9 -13 -7 -10 -7 -7 -6 -6 -5 -5 -4 -4 -4 -5 -5 -6 -14 -10 -4 -2 -1 -0 -0 -0 0 2 4 5 7 7 7
-2 -2 -3 -2 -1 -1 -1 0 -4 -4 -0 -7 -6 -9 -14 -12 -9 -9 -8 -6 -5 -5 -5 -5 -4 -4 -4 -5 -8 -15 -10 -2 -1 -1 -0 0 -0 -1 -0 2 5 6 7 7
-3 -4 -2 -3 -1 -0 -2 -3 -4 -17 -0 -5 -6 -7 -14 -10 -8 -9 -8 -7 -6 -5 -5 -5 -5 -4 -5 -6 -10 -15 -10 -6 -1 -1 -0 -0 -0 -1 -1 -1 3 5 6 7
-4 -3 -2 -2 -1 -2 0 1 -4 -2 -4 -2 -9 -8 -16 -10 -12 -7 -7 -6 -7 -6 -6 -6 -6 -6 -7 -8 -11 -16 -10 -7 -1 -1 -0 -0 0 -0 -1 -2 0 4 6 6
-3 -3 -2 -3 -1 -2 -1 -3 -1 -1 -12 -9 -3 -1 -11 -12 -15 -8 -7 -7 -8 -8 -8 -7 -7 -7 -7 -9 -13 -16 -12 -8 -1 -0 0 1 1 0 -0 -1 -2 -1 4 6
-5 -4 -0 -4 -1 -0 -3 -1 -5 -2 -2 -3 -3 -5 -5 -14 -13 -10 -9 -9 -10 -11 -13 -10 -10 -10 -10 -12 -17 -16 -13 -3 -1 -0 1 1 0 0 0 -0 -1 -2 -1 4
-6 -2 -1 -4 -3 -4 -2 -1 -5 -2 -2 -2 -1 -4 -8 -9 -9 -8 -8 -8 -11 -12 -14 -14 -12 -13 -13 -12 -17 -16 -13 -1 -1 -1 1 0 0 0 0 -0 -0 -2 -3 -1
-7 -4 -4 -1 -1 -2 -2 -3 -4 -5 -2 -2 -1 -1 -4 -10 -11 -13 -11 -12 -11 -13 -13 -17 -15 -13 -14 -14 -15 -16 -11 -1 -1 -0 0 0 0 0 0 0 -0 -1 -2 -3
-8 -2 -3 1 2 -1 -3 -1 -3 -4 -5 -3 -0 -2 -4 -4 -5 -7 -8 -13 -13 -13 -14 -18 -18 -17 -14 -15 -17 -15 -10 -1 -1 0 0 1 0 0 0 0 0 -2 -2 -3
-6 -5 -5 -4 -4 -4 -2 -2 -2 -3 -4 -3 -1 -2 -2 -3 -4 -5 -6 -7 -7 -7 -13 -16 -22 -21 -20 -19 -16 -13 -9 -1 -1 -0 0 0 1 1 1 1 1 0 -0 -2
-6 0 -3 -3 -3 -3 -3 -4 -2 -2 -4 -3 -3 -3 -7 -7 -6 -7 -7 -8 -6 -6 -10 -25 -21 -22 -24 -21 -8 -10 -7 -2 -1 -0 -0 1 1 1 1 2 2 1 2 3
-4 -0 0 2 -5 -4 1 -3 -4 -2 -2 -4 -3 -4 -6 -6 -7 -7 -9 -12 -13 -14 -26 -24 -19 -21 -27 -20 -5 -6 -3 -2 -1 0 -0 -0 1 1 1 1 2 3 3 4
-2 0 2 3 -1 6 2 -3 -5 -4 -3 -3 -4 -4 -5 -5 -6 -6 -8 -12 -16 -22 -23 -19 -19 -19 -27 -23 -5 -5 -4 -3 -2 -2 -4 -1 -0 1 1 1 1 2 3 3
-4 1 3 4 -0 1 1 -4 -3 -3 -0 -4 -3 -4 -5 -5 -5 -6 -7 -9 -15 -15 -17 -17 -17 -18 -26 -27 -9 -5 -5 -4 -4 -5 -10 -8 -1 0 0 1 1 1 1 2
-6 -3 4 3 5 5 1 -5 -6 -8 0 -6 -4 -4 -4 -6 -4 -6 -10 -9 -10 -16 -16 -17 -17 -16 -20 -29 -27 -9 -7 -6 -6 -6 -10 -16 -12 -1 -0 0 1 1 1 1
-1 -1 2 3 5 3 -0 -7 -7 1 2 -10 -11 -8 -5 -5 -6 -11 -13 -14 -13 -16 -16 -18 -18 -18 -18 -27 -29 -27 -19 -11 -9 -9 -11 -15 -21 -16 -3 -1 -0 0 1 1
0 1 1 2 3 4 -4 -8 -3 -3 -10 -13 -12 -12 -9 -6 -6 -7 -9 -14 -15 -17 -18 -18 -20 -20 -19 -23 -27 -29 -28 -25 -22 -18 -18 -17 -21 -23 -22 -13 -4 -1 -0 -0
1 0 0 1 1 -2 -5 -3 -5 -6 -8 -9 -9 -8 -10 -11 -8 -7 -10 -13 -16 -16 -18 -20 -20 -21 -21 -22 -24 -26 -27 -28 -26 -26 -27 -29 -29 -28 -27 -25 -24 -10 -4 -2
-3 -2 -1 -2 -2 -3 -3 -4 -5 -6 -6 -7 -8 -8 -7 -7 -11 -14 -11 -14 -16 -17 -18 -18 -19 -19 -20 -20 -21 -22 -23 -24 -25 -26 -26 -26 -26 -27 -27 -28 -28 -27 -25 -12
-2 -3 -3 -3 -4 -4 -4 -3 -4 -4 -5 -6 -6 -6 -6 -5 -5 -8 -11 -16 -15 -15 -14 -14 -15 -16 -16 -16 -16 -16 -17 -18 -18 -20 -21 -22 -22 -23 -24 -25 -25 -26 -27 -27
-4 -3 -1 -0 -3 -2 -2 -3 -4 -4 -4 -5 -5 -5 -3 -3 -5 -5 -6 -8 -15 -13 -13 -12 -12 -13 -12 -12 -13 -12 -13 -13 -13 -13 -13 -13 -14 -14 -15 -16 -18 -20 -22 -24
Wind_Speed
5 6 3 2 2 0 1 2 5 3 1 2 3 8 11 16 14 9 10 7 4 5 9 10 14 18 17 16 16 18 18 16 15 14 12 5 7 9 10 10 7 8 18 27
6 3 0 2 2 2 3 2 4 6 2 2 5 14 12 9 9 8 8 9 9 9 8 9 11 12 15 18 17 17 16 13 11 10 11 7 1 5 4 3 3 7 14 26
5 3 0 2 3 4 3 2 2 4 9 4 5 7 5 1 8 9 11 9 7 6 7 8 12 14 17 17 18 16 14 12 11 12 9 6 3 0 2 1 2 5 6 28
5 1 0 1 3 3 2 1 2 4 6 2 4 4 6 4 6 6 14 12 7 8 8 8 10 13 15 17 16 15 13 12 11 11 9 6 1 1 3 2 2 3 0 29
2 1 1 2 1 2 2 1 1 2 2 2 4 4 7 2 6 7 12 11 8 7 8 9 11 13 14 13 15 14 13 13 10 10 9 6 2 3 4 4 2 8 12 6
3 2 3 1 1 1 1 1 1 2 2 3 3 4 6 3 4 2 5 9 7 5 7 9 10 11 15 14 15 13 12 11 9 9 9 6 4 3 4 5 3 10 12 11
3 1 1 2 1 2 0 3 4 5 4 4 3 3 9 5 3 4 4 2 4 5 8 8 9 12 14 14 12 12 11 9 8 8 8 5 4 4 2 5 5 7 12 14
4 5 1 4 2 1 2 2 4 4 2 5 1 5 3 3 4 3 1 3 7 9 6 10 11 10 12 12 11 10 9 8 9 9 7 6 4 5 4 2 6 7 10 13
4 3 1 3 2 2 1 2 2 6 2 3 3 7 3 2 1 2 1 2 6 4 8 11 11 10 9 10 11 9 8 7 6 7 6 6 5 3 3 3 3 6 9 13
5 2 2 2 2 2 1 2 3 3 1 4 5 6 5 3 2 4 4 4 3 5 6 8 11 10 8 8 9 8 8 7 5 7 6 4 5 4 2 1 3 4 6 11
4 3 3 3 3 5 1 1 2 2 3 4 1 6 7 6 6 8 9 7 5 7 7 6 8 8 7 6 7 7 6 5 6 6 6 6 5 3 1 2 3 4 6 7
3 5 3 6 3 2 2 2 4 4 4 1 3 7 3 5 6 7 9 7 6 6 6 6 6 5 6 5 5 5 4 4 5 7 7 7 6 5 3 1 3 5 8 8
7 1 2 6 2 3 3 4 3 3 3 5 5 6 1 6 6 9 10 12 10 7 7 6 6 5 5 5 6 3 2 4 5 7 8 8 9 8 6 3 2 5 9 10
5 3 6 5 4 4 2 3 5 4 3 3 7 9 12 7 7 16 16 14 14 13 8 6 6 5 5 4 3 3 3 3 5 6 7 8 10 10 8 7 6 7 9 10
1 4 3 4 6 4 5 5 7 9 7 6 6 10 18 6 8 20 25 23 19 19 14 8 7 5 5 2 2 2 3 4 5 6 8 8 10 11 11 11 10 12 11 11
3 3 2 4 0 3 5 8 9 14 4 11 9 23 18 33 25 21 17 16 13 14 11 10 7 5 4 2 1 4 8 6 5 6 6 8 10 12 12 13 12 12 13 13
6 6 3 4 1 1 8 11 14 5 6 9 8 16 3 5 8 12 11 7 9 10 11 10 7 5 4 3 4 5 8 7 5 5 5 6 8 12 12 12 13 14 13 14
7 6 2 3 1 3 8 4 6 14 9 15 13 14 9 10 15 17 14 9 8 11 11 10 9 7 6 6 6 8 7 6 4 4 5 5 7 7 11 11 11 11 12 12
5 5 3 3 3 6 10 5 7 7 8 16 18 20 19 17 16 25 23 19 11 10 10 8 9 8 6 7 7 7 7 5 4 4 4 4 4 5 7 8 8 9 10 9
4 4 2 3 3 5 7 3 7 5 6 3 14 12 5 6 1 4 7 16 19 14 13 11 10 11 9 8 8 8 6 5 4 3 4 3 4 5 6 6 6 7 8 9
4 2 5 5 4 6 11 10 9 4 6 1 3 8 9 5 10 3 6 4 13 17 14 11 11 10 10 9 8 8 7 5 4 3 2 2 3 4 5 6 6 6 7 8
9 10 4 3 4 8 16 6 7 5 2 1 2 4 4 13 11 12 7 2 11 18 16 12 12 12 12 11 9 8 6 8 6 4 4 3 2 2 3 4 6 8 8 7
4 8 8 12 9 4 24 13 18 8 3 3 6 10 7 4 8 14 6 6 8 12 13 13 12 12 12 11 10 8 9 9 8 7 5 4 4 3 3 5 6 7 8 11
4 9 3 3 7 15 21 26 26 15 15 12 7 7 9 9 6 5 9 8 10 11 11 12 13 13 12 11 10 9 12 11 10 9 8 8 6 6 5 5 6 7 8 9
6 13 7 5 9 10 18 28 29 23 21 19 18 17 14 14 11 8 7 10 10 13 12 12 12 12 11 11 11 12 12 13 11 10 10 10 10 9 8 8 8 8 9 10
9 7 6 6 17 13 22 19 13 16 19 16 12 10 7 10 6 7 8 8 10 13 14 14 13 14 12 12 12 13 15 15 15 15 14 13 13 12 12 12 12 11 10 12
Wind_Direction
37 67 72 54 49 10 347 354 296 303 113 314 248 280 276 295 219 241 272 285 306 317 288 278 296 304 315 319 313 317 322 325 324 321 320 272 231 249 254 274 270 292 216 201
32 80 268 326 21 54 33 334 314 283 333 329 294 282 267 246 239 230 252 275 283 292 291 293 293 304 310 314 317 317 327 333 327 319 318 322 234 228 255 286 335 287 222 193
116 154 154 349 42 39 49 113 27 260 318 267 298 302 322 115 205 229 247 261 276 274 288 280 285 295 302 310 317 324 330 334 338 327 323 312 221 101 54 341 285 320 263 180
90 254 321 47 87 354 206 14 338 313 8 316 33 281 310 232 235 248 245 237 242 279 295 279 273 283 301 310 322 329 331 332 347 336 332 332 280 24 42 37 41 270 45 169
192 118 57 79 127 346 195 289 257 295 327 1 9 67 271 86 269 242 246 229 259 271 293 292 295 307 307 319 329 336 333 333 345 348 341 344 11 37 74 49 59 168 198 143
94 44 44 78 312 281 310 245 277 3 60 33 237 122 285 223 223 200 223 243 248 271 290 307 299 306 313 329 329 336 340 346 351 355 339 353 345 38 86 91 122 167 183 202
353 43 63 15 13 303 318 55 338 353 11 207 155 45 246 286 244 171 171 250 279 286 305 304 301 306 313 315 331 336 347 352 2 5 358 356 342 326 111 113 126 159 173 174
137 319 11 345 56 198 39 124 144 228 302 274 294 237 251 177 143 121 96 302 300 308 289 312 313 312 309 316 337 342 349 356 358 16 11 355 345 306 310 96 151 167 173 157
118 296 348 33 358 63 249 48 146 103 45 30 252 284 332 236 237 147 123 291 311 312 316 316 314 316 324 325 333 346 349 1 11 30 17 358 355 342 327 312 184 159 181 168
190 52 298 334 341 8 354 182 65 10 46 303 295 286 235 317 285 207 207 257 269 308 310 311 314 320 325 327 333 348 354 358 17 17 34 27 17 16 331 277 226 183 171 190
133 102 297 16 213 188 126 56 76 112 134 167 287 275 210 206 180 189 188 200 277 305 310 307 308 318 319 332 336 351 5 16 24 29 27 27 32 359 16 186 182 189 196 182
191 134 166 226 289 339 310 199 170 125 255 173 145 274 223 217 181 176 184 212 247 290 310 309 308 315 318 328 353 354 17 58 36 29 23 27 39 36 6 42 163 181 196 184
188 50 20 337 355 357 246 214 177 116 80 209 141 262 277 254 257 243 245 238 241 260 292 290 299 298 312 340 336 3 38 71 45 37 33 32 42 31 42 49 129 166 184 180
170 103 164 196 192 130 223 231 194 149 130 203 225 270 272 271 251 259 262 259 260 243 291 267 277 290 290 319 338 340 98 100 62 57 48 52 59 49 50 65 83 144 162 171
154 167 155 250 236 216 223 196 188 202 208 187 252 226 263 236 232 265 285 289 277 248 246 254 256 268 271 293 336 150 139 122 97 70 54 55 67 67 65 65 80 104 120 140
205 118 117 290 337 190 261 233 210 223 234 266 288 283 270 272 273 277 276 289 263 239 212 201 219 242 240 191 39 152 153 146 109 80 66 59 79 78 74 80 91 100 107 118
143 134 132 260 62 65 295 229 203 197 206 190 206 243 195 254 258 275 301 271 251 197 179 194 195 207 199 169 137 148 150 150 135 111 100 84 79 102 91 90 98 101 109 118
131 135 126 235 12 214 238 165 178 209 230 212 258 266 239 251 275 276 272 263 226 203 194 190 192 195 199 177 157 158 154 147 138 116 107 118 105 102 114 110 105 113 116 128
60 133 161 192 197 312 299 197 163 176 278 215 227 255 265 275 287 280 257 239 221 212 202 194 194 191 193 190 180 172 168 158 148 129 111 127 145 128 125 124 136 133 133 141
55 58 142 150 212 228 243 161 166 163 289 147 201 247 251 189 290 265 338 221 221 204 200 201 203 200 191 196 195 194 193 186 170 152 125 120 131 160 157 147 146 147 158 168
134 98 198 197 225 280 269 162 148 105 239 182 242 267 217 195 220 298 347 252 200 199 196 202 206 204 194 193 200 201 208 199 206 192 162 146 135 153 175 192 189 179 179 177
161 163 175 153 210 271 181 111 192 199 149 133 51 14 277 239 251 254 275 290 195 197 201 204 201 199 202 199 200 205 200 215 219 224 232 229 213 199 184 194 210 214 213 204
204 182 179 188 200 215 187 223 218 194 187 257 278 328 341 310 250 250 266 244 194 189 193 193 195 197 203 209 208 202 195 221 225 227 230 236 247 244 242 234 219 222 229 230
255 182 189 109 220 236 234 233 239 238 257 265 267 287 305 313 313 292 235 230 218 208 200 202 205 206 207 209 213 208 216 223 226 230 238 243 239 248 255 257 263 255 240 240
182 149 164 271 274 263 264 251 251 247 258 259 254 271 282 295 287 275 273 238 235 229 223 220 223 225 221 221 218 221 231 240 243 243 244 251 254 256 257 256 258 264 266 263
189 168 177 214 219 214 249 256 255 245 237 250 255 260 263 280 285 278 278 260 247 239 237 232 235 236 228 233 230 232 237 245 250 254 255 260 263 265 267 268 267 266 263 270
Height
1532 1541 1551 1548 1546 1545 1545 1545 1549 1539 1540 1538 1536 1534 1524 1522 1522 1520 1519 1518 1517 1516 1514 1514 1513 1511 1509 1507 1505 1502 1499 1496 1494 1491 1489 1487 1486 1485 1484 1484 1484 1482 1482 1487
1538 1549 1548 1546 1544 1545 1546 1546 1550 1544 1539 1540 1536 1527 1518 1517 1518 1518 1517 1516 1516 1515 1514 1512 1511 1508 1506 1504 1503 1500 1497 1494 1491 1488 1486 1485 1483 1482 1482 1481 1479 1479 1479 1482
1541 1549 1547 1546 1547 1547 1551 1549 1554 1558 1546 1538 1536 1528 1514 1513 1515 1516 1516 1515 1515 1514 1512 1512 1509 1507 1505 1503 1501 1498 1495 1492 1490 1487 1485 1483 1482 1481 1481 1479 1479 1477 1476 1478
1548 1547 1547 1546 1549 1551 1547 1553 1551 1551 1556 1544 1538 1550 1526 1515 1515 1514 1514 1514 1514 1512 1511 1510 1508 1506 1504 1501 1499 1496 1494 1491 1489 1486 1484 1481 1480 1480 1479 1478 1477 1477 1476 1477
1549 1549 1548 1546 1551 1551 1550 1552 1551 1550 1553 1552 1543 1560 1528 1515 1516 1514 1513 1513 1512 1511 1510 1508 1506 1504 1502 1499 1497 1495 1492 1489 1487 1485 1483 1481 1480 1478 1479 1478 1477 1478 1482 1479
1551 1551 1552 1552 1551 1551 1551 1551 1551 1550 1556 1581 1546 1552 1531 1520 1511 1511 1512 1512 1510 1510 1509 1506 1505 1503 1500 1498 1496 1494 1491 1488 1486 1484 1482 1481 1480 1479 1479 1478 1477 1479 1481 1481
1553 1553 1553 1553 1552 1551 1551 1553 1578 1565 1570 1564 1549 1558 1526 1511 1509 1508 1510 1512 1510 1510 1508 1505 1503 1501 1498 1497 1496 1493 1490 1487 1485 1484 1483 1481 1479 1479 1479 1478 1478 1480 1481 1484
1560 1556 1554 1554 1554 1552 1551 1554 1575 1561 1566 1561 1551 1541 1515 1507 1508 1508 1509 1510 1510 1510 1508 1505 1502 1500 1498 1495 1494 1492 1491 1487 1484 1483 1482 1480 1479 1478 1479 1480 1481 1481 1482 1485
1562 1556 1556 1555 1554 1556 1552 1563 1557 1578 1596 1576 1547 1525 1510 1508 1507 1507 1508 1508 1508 1508 1507 1505 1501 1499 1496 1494 1492 1491 1490 1488 1486 1485 1482 1480 1479 1479 1477 1476 1477 1479 1481 1482
1545 1555 1559 1557 1556 1555 1554 1555 1563 1574 1565 1562 1552 1536 1522 1506 1505 1506 1507 1506 1506 1506 1504 1503 1501 1498 1496 1494 1492 1491 1489 1487 1486 1484 1483 1482 1479 1478 1477 1477 1477 1478 1480 1482
1543 1548 1561 1561 1561 1554 1559 1561 1557 1560 1565 1573 1581 1531 1510 1501 1499 1501 1501 1503 1503 1503 1501 1501 1500 1498 1496 1494 1492 1490 1489 1488 1486 1485 1483 1481 1481 1479 1478 1477 1477 1478 1480 1482
1538 1545 1561 1557 1556 1554 1552 1546 1550 1563 1566 1576 1572 1538 1500 1501 1499 1499 1499 1499 1499 1499 1498 1499 1498 1498 1496 1494 1492 1490 1489 1488 1487 1485 1484 1482 1481 1479 1478 1477 1476 1478 1480 1483
1535 1549 1565 1552 1557 1557 1554 1548 1546 1552 1559 1567 1560 1532 1499 1499 1499 1498 1497 1496 1495 1496 1496 1496 1496 1496 1495 1494 1492 1491 1489 1488 1488 1486 1485 1483 1482 1480 1478 1477 1477 1478 1481 1483
1531 1547 1544 1543 1537 1546 1554 1551 1547 1550 1573 1551 1538 1518 1498 1501 1499 1493 1492 1492 1492 1493 1493 1493 1494 1494 1494 1493 1493 1491 1491 1490 1489 1488 1486 1485 1484 1483 1481 1479 1478 1478 1482 1485
1532 1543 1554 1550 1541 1538 1541 1544 1547 1548 1535 1533 1512 1520 1488 1494 1491 1488 1488 1486 1484 1487 1489 1491 1492 1493 1492 1492 1493 1492 1492 1492 1491 1490 1489 1487 1486 1485 1484 1482 1481 1481 1483 1485
1529 1539 1547 1547 1546 1542 1542 1535 1537 1533 1536 1531 1523 1508 1487 1481 1483 1481 1481 1480 1479 1481 1484 1487 1489 1490 1491 1491 1492 1492 1492 1492 1492 1492 1491 1490 1489 1488 1488 1487 1487 1487 1488 1488
1526 1535 1541 1537 1550 1544 1534 1517 1518 1519 1516 1513 1517 1482 1479 1479 1478 1477 1477 1476 1477 1478 1481 1484 1486 1488 1490 1491 1491 1492 1492 1493 1493 1493 1493 1493 1492 1492 1492 1491 1491 1491 1492 1493
1521 1531 1537 1535 1545 1527 1501 1497 1499 1502 1496 1499 1489 1478 1476 1475 1475 1474 1474 1475 1475 1477 1479 1481 1483 1486 1488 1489 1490 1492 1493 1493 1493 1493 1493 1494 1494 1494 1493 1494 1495 1495 1495 1496
1514 1523 1533 1532 1550 1519 1494 1495 1498 1497 1478 1476 1479 1470 1471 1472 1471 1464 1466 1469 1471 1474 1477 1479 1482 1484 1486 1488 1489 1491 1492 1492 1493 1493 1493 1494 1494 1495 1495 1496 1497 1498 1500 1500
1518 1520 1520 1533 1525 1515 1490 1487 1488 1489 1490 1466 1470 1468 1470 1472 1475 1466 1461 1462 1466 1471 1474 1476 1479 1482 1483 1486 1488 1490 1491 1492 1493 1493 1493 1494 1495 1496 1496 1497 1497 1498 1500 1502
1524 1527 1523 1520 1516 1506 1485 1484 1486 1497 1477 1465 1466 1465 1467 1470 1466 1463 1462 1461 1463 1468 1472 1474 1476 1480 1482 1483 1486 1487 1490 1491 1492 1493 1494 1494 1494 1495 1496 1498 1499 1499 1500 1501
1501 1510 1519 1520 1520 1507 1476 1485 1484 1467 1464 1464 1464 1464 1463 1462 1463 1463 1462 1461 1462 1465 1468 1471 1474 1477 1479 1481 1483 1486 1488 1490 1491 1492 1493 1494 1494 1495 1496 1497 1498 1499 1501 1501
1483 1475 1488 1486 1480 1465 1466 1461 1461 1462 1462 1463 1463 1463 1462 1461 1461 1463 1462 1462 1463 1465 1467 1469 1472 1474 1477 1479 1481 1484 1486 1488 1490 1491 1492 1493 1493 1494 1495 1496 1497 1497 1498 1500
1472 1467 1474 1474 1462 1459 1456 1458 1460 1460 1460 1460 1460 1461 1461 1461 1461 1461 1461 1462 1463 1465 1466 1469 1470 1472 1475 1477 1479 1481 1482 1484 1486 1488 1490 1491 1492 1493 1494 1495 1495 1496 1496 1497
1455 1458 1466 1465 1455 1454 1452 1451 1452 1456 1455 1454 1456 1457 1458 1459 1459 1459 1460 1460 1461 1464 1465 1467 1469 1471 1473 1475 1477 1479 1480 1481 1483 1485 1487 1488 1490 1490 1491 1492 1493 1494 1495 1495
1442 1447 1451 1451 1440 1442 1443 1445 1447 1448 1449 1450 1451 1452 1454 1455 1455 1456 1457 1458 1459 1461 1463 1464 1466 1469 1471 1472 1473 1475 1476 1478 1479 1480 1482 1484 1486 1487 1488 1489 1489 1490 1490 1491